Regional Weather Roundup
Issued by NWS

Home | Current Version | Previous Version | Graphics & Text | Print | Product List | Glossary On
Versions: 1 2 3 4 5 6 7 8 9 10 11 12 13 14 15 16 17 18 19 20 21 22 23 24 25 26 27 28 29 30 31 32 33 34 35 36 37 38 39 40 41 42 43 44 45 46 47 48 49 50
000
ASUS43 KMKX 250321
RWRWI

WISCONSIN REGIONAL WEATHER ROUNDUP
NATIONAL WEATHER SERVICE MILWAUKEE/SULLIVAN WI
1000 PM CDT SAT SEP 24 2016

NOTE: "FAIR" INDICATES FEW OR NO CLOUDS BELOW 12,000 FEET WITH NO
SIGNIFICANT WEATHER AND/OR OBSTRUCTIONS TO VISIBILITY.

WIZ001-002-006>008-014>016-023>028-250400-
NORTHWEST WISCONSIN

CITY           SKY/WX    TMP DP  RH WIND       PRES   REMARKS
SUPERIOR ARPT  CLOUDY    58  58  97 NE7       30.04F
ASHLAND          N/A     62  57  83 E8        30.07F
HAYWARD        CLOUDY    64  58  80 SE15      30.07F
SIREN          CLOUDY    65  60  85 SE9       30.03F
CUMBERLAND     CLOUDY    63  59  88 SE13G18   30.05F
RICE LAKE      CLOUDY    64  59  83 SE16      30.07F
CHETEK         NOT AVBL
LADYSMITH      CLOUDY    64  57  76 SE9       30.12S
EAU CLAIRE     CLOUDY    65  60  84 SE8       30.07F
MENOMONIE      CLOUDY    65  61  88 E9        30.07F
NEW RICHMOND   CLOUDY    64  62  93 SE9       30.02F
OSCEOLA        CLOUDY    65  65 100 SE12G18   30.04S
$$

WIZ003>005-009-010-017-018-250400-
NORTH CENTRAL WISCONSIN

CITY           SKY/WX    TMP DP  RH WIND       PRES   REMARKS
MANITOWISH WTR NOT AVBL
ARBOR VITAE    CLOUDY    59  53  78 SE8       30.16F
WOODRUFF       CLOUDY    59  53  78 SE8       30.16F
RHINELANDER    MOCLDY    57  53  86 SE7       30.18F
EAGLE RIVER    CLOUDY    58  49  73 S5        30.18S
LAND O LAKES   CLOUDY    60  51  72 S6        30.19F
PHILLIPS       CLOUDY    61  55  81 SE7       30.14F
TOMAHAWK       CLOUDY    58  52  81 SE5       30.17F
MEDFORD        MOCLDY    60  57  89 SE7       30.14F
MERRILL        CLOUDY    60  55  82 SE7       30.17F
$$

WIZ029-030-035-036-043>047-250400-
CENTRAL WISCONSIN

CITY           SKY/WX    TMP DP  RH WIND       PRES   REMARKS
WAUSAU         CLOUDY    61  52  72 SE13      30.16S
MOSINEE        CLOUDY    61  55  82 SE7       30.18S
MARSHFIELD     PTCLDY    61  56  83 E9        30.13F
STEVENS POINT  CLOUDY    60  55  86 SE6       30.17F
WAUPACA        MOCLDY    62  59  90 E5        30.18F
WAUTOMA        PTCLDY    62  58  86 E5        30.17F
WISC RAPIDS    CLOUDY    63  59  87 SE9       30.16F
CAMP DOUGLAS   CLEAR     60  59  97 E9        30.11F
$$

WIZ011>013-019>022-031-037>040-048>050-250400-
NORTHEAST WISCONSIN

CITY           SKY/WX    TMP DP  RH WIND       PRES   REMARKS
ANTIGO         MOCLDY    56  52  87 CALM      30.20S
SHAWANO        CLOUDY    60  54  80 CALM      30.19S
OCONTO         NOT AVBL
STURGEON BAY   CLEAR     55  52  89 E3        30.20F
GREEN BAY      CLOUDY    61  56  83 E6        30.18F
MANITOWOC      CLOUDY    59  56  89 CALM      30.18F
APPLETON       CLOUDY    61  52  72 E6        30.17F
CLINTONVILLE   NOT AVBL
OSHKOSH        CLOUDY    63  56  78 SE6       30.17F
$$

WIZ032>034-041-042-053>061-250400-
SOUTHWEST WISCONSIN

CITY           SKY/WX    TMP DP  RH WIND       PRES   REMARKS
LA CROSSE        N/A     67  63  87 SE6       30.06F
SPARTA         CLEAR     61  60  96 E7        30.10F
VIROQUA        PTCLDY    63  62  98 E8        30.09F
BOSCOBEL       CLEAR     65  63  93 NE3       30.09S
PRAIRIE DU CHI CLOUDY    66  63  88 SE3       30.06S
PLATTEVILLE    CLEAR     66  65  99 E13       30.09S
$$

WIZ056-057-062-063-064-067-068-250400-
SOUTH CENTRAL WISCONSIN

CITY           SKY/WX    TMP DP  RH WIND       PRES   REMARKS
REEDSBURG      NOT AVBL
BARABOO/DELLS  CLEAR     61  59  94 E6        30.13F
LONE ROCK      CLEAR     65  61  87 E9        30.11S
MINERAL POINT  CLEAR     64  63  94 E10G17    30.11S
MADISON        PTCLDY    63  60  90 E9        30.13F
MIDDLETON      CLOUDY    65  64  97 SE9G16    30.13F
WATERTOWN      CLEAR     60  60 100 E5        30.15F
MONROE         CLEAR     63  61  94 E10       30.12F
JANESVILLE     NOT AVBL
$$

WIZ051-052-058>065-066-070>072-250400-
SOUTHEAST WISCONSIN

CITY           SKY/WX    TMP DP  RH WIND       PRES   REMARKS
MILWAUKEE      MOCLDY    67  61  81 E7        30.16S
WAUKESHA       CLOUDY    61  57  88 E6        30.18S
MILWAUKEE/TIMM CLOUDY    64  55  72 E3        30.18S
RACINE         PTCLDY    68  61  78 E7        30.18R
BURLINGTON     CLEAR     59  58  97 CALM      30.16S
KENOSHA        CLOUDY    66  62  87 E7        30.16S
FOND DU LAC    CLOUDY    63  56  78 E5        30.17F
SHEBOYGAN      CLOUDY    62  58  86 E5        30.18F
WEST BEND      CLOUDY    61  57  88 E3        30.18S
JUNEAU         PTCLDY    60  57  92 NE5       30.18F
$$

LSZ147-162-250400-
LAKE SUPERIOR

STATION/POSITION TIME  TEMP    WIND        PRES    WAVE
                       AIR SEA DIR/SP/G            HT/PER
                 (UTC) (F)     (DEG/KT/KT) (MB)    (FT/S)
W MID LAKE BUOY  0250   65 62  120/ 14/ 16 1019.2F   2/ 4
DEVILS ISLAND    0300   64     130/  8/ 11 1018.3F
SAXON HARBOR     0200   62     130/  1/  4 1019.6R
$$

LMZ867-665-643>646-250400-
LAKE MICHIGAN

STATION/POSITION TIME  TEMP    WIND        PRES    WAVE
                       AIR SEA DIR/SP/G            HT/PER
                 (UTC) (F)     (DEG/KT/KT) (MB)    (FT/S)
CHAMBERS ISLAND  0200   54      CALM  /  2 1022.7R
S GREEN BAY BUOY 0300   63 66   90/  8/  8 1021.7F
N MID LAKE BUOY  0250   65 67  120/ 14/ 17 1022.6S   2/ 4
NORTHPORT PIER   0200   65     110/ 10/ 11 1023.0R
KEWAUNEE LAKESHO 0200   63     100/  3/  5 1022.4R
SHEBOYGAN LAKESH 0300   65      90/  9/  9 1021.5F
PORT WASHINGTON  0200   63      30/  4/  5 1022.7
ATWATER BUOY     0300   65 62  100/  6/  8 1021.5F
MILWAUKEE LAKESH 0210   65      50/  5/  5   N/A
S MID LAKE BUOY  0250   70 72  100/ 16/ 17 1020.7R   2/ 4
KENOSHA   LAKESH 0300   68     100/ 10/ 11 1020.7S
$$

TC  - TEMPERATURE IN CELSIUS
VSB - VISIBILITY IN STATUTE MILES
WCI - WIND CHILL INDEX
HX  - HEAT INDEX





USA.gov is the U.S. government's official web portal to all federal, state and local government web resources and services.